Погода в Слобозии

Румыния     44°33′59″N   27°21′57″E
темп.,
°C
ветер,
м/с
пор.,
м/с
влажн.,
%
обл.,
%
осадки,
мм/ч
давл.,
гПа
погр.,
м
28 января, чт
чт2823:00−1зсз3698100 0.9 1007400
02:000з4983100 1.1 1006300
05:00−1зюз61085100 0.1 1007322
08:00−1зюз51088100 0.1 1008320
11:000зюз5887100 0.0 1009420
14:00+1зюз5887100 0.0 1009495
17:000юз498765 0.0 1009202
20:00−1юз5108751 0.0 1009210
29 января, пт
пт2923:00−2зюз48861 0.0 1009166
02:00−2зюз5119035 0.0 1008288
05:00−2юз5108784 0.0 1007276
08:00−2юз5128191 0.0 1007297
11:00+1зюз81493100 0.0 1007624
14:00+2юз61186100 0.0 1005640
17:00+2юз499236 0.0 1004249
20:00+1ююз479419 0.0 1005120
30 января, сб
сб3023:00+1ююз469049 0.0 1004102
02:00+1ююв239063 0.0 100324
05:00+1вюв228897 0.0 100022
08:00+1в128697 0.0 99822
11:00+3зюз238481 0.0 998153
14:00+5зюз6108790 0.0 997526
17:00+4зюз7129199 0.0 998279
20:00+3зюз489355 0.0 1000148
31 января, вс
вс3123:00+3юз6119324 0.0 1001274
02:00+3юз599162 0.0 1001191
05:00+2зюз3589100 0.0 1002107
08:00+3ссв1187100 0.0 100522
11:00+3всв71167100 0.0 1007496
14:00+3всв71164100 0.0 1007582
17:00+2всв71277100 0.0 1006586
20:00+3всв71189100 0.0 1004371
1 февраля, пн
пн123:00+5в41095100 0.6 1001338
02:00+8юв91788100 6.9 996779
05:00+8ююз91690100 1.8 992684
08:00+6зюз8129295 1.9 994612
11:00+8юз7117971 0.0 997723
14:00+10юз587061 0.0 997757
17:00+8юз377859 0.0 999229
20:00+7юз478555 0.0 1002163